Weather History for El Centro, CA

Change the Weather History Date:

Monday, July 15, 2013

  Actual Average Record
Temperature  
Mean Temperature 96 °F -  
Max Temperature 113 °F 104 °F 115 °F (1998)
Min Temperature 81 °F 78 °F 72 °F (2011)
Cooling Degree Days 31    
Growing Degree Days 46 (Base 50)    
Moisture  
Dew Point 52 °F    
Average Humidity 24    
Maximum Humidity 61    
Minimum Humidity 13    
Precipitation  
Precipitation 0.00 in - - ()
Sea Level Pressure  
Sea Level Pressure 29.70 in    
Wind  
Wind Speed 8 mph (SSW)    
Max Wind Speed 21 mph    
Max Gust Speed 22 mph    
Visibility 10 miles    
Events      
Averages and records for this station are not official NWS values.
T = Trace of Precipitation, MM = Missing Value Source: NWS Daily Summary

Daily Weather History Graph

Daily Weather History Graph

Search for Another Location

Airport:

Trip Planner

Search our weather history database for the weather conditions in past years. The results will help you decide how hot, cold, wet, or windy it might be!

Date:

Astronomy

Jul. 15, 2013 Rise Set
Actual Time 5:45 AM PDT 7:51 PM PDT
Civil Twilight 5:17 AM PDT 8:19 PM PDT
Nautical Twilight 4:43 AM PDT 8:53 PM PDT
Astronomical Twilight 4:06 AM PDT 9:29 PM PDT
Moon 12:42 PM PDT (7/15) No Moon Set
Length of Visible Light 15h 01m
Length of Day
14h 06m
Waxing Crescent, 46% of the Moon is Illuminated
Jul 15
Waxing Crescent
Jul 15
First Quarter
Jul 22
Full
Jul 29
Last Quarter
Aug 6
New

Hourly Weather History & Observations

Time (PDT) Temp. Heat Index Dew Point Humidity Pressure Visibility Wind Dir Wind Speed Gust Speed Precip Events Conditions
12:56 AM 89.1 °F 87.7 °F 57.0 °F 34% 29.73 in 10.0 mi SE 4.6 mph - N/A   Unknown
1:56 AM 93.0 °F - 48.9 °F 22% 29.73 in 10.0 mi SSW 6.9 mph - N/A   Unknown
2:56 AM 91.9 °F - 48.9 °F 23% 29.72 in 10.0 mi WSW 9.2 mph - N/A   Unknown
3:56 AM 87.1 °F - 48.9 °F 27% 29.72 in 10.0 mi West 8.1 mph - N/A   Unknown
4:56 AM 87.1 °F - 50.0 °F 28% 29.72 in 10.0 mi SW 6.9 mph - N/A   Unknown
5:56 AM 81.0 °F 83.0 °F 66.0 °F 60% 29.74 in 10.0 mi SSE 3.5 mph - N/A   Partly Cloudy
6:56 AM 84.9 °F 89.4 °F 70.0 °F 61% 29.75 in 10.0 mi South 6.9 mph - N/A   Partly Cloudy
7:56 AM 89.1 °F 94.1 °F 70.0 °F 53% 29.75 in 10.0 mi SSE 4.6 mph - N/A   Partly Cloudy
8:56 AM 95.0 °F 97.4 °F 64.9 °F 37% 29.76 in 10.0 mi ESE 3.5 mph - N/A   Partly Cloudy
9:56 AM 100.9 °F 99.1 °F 54.0 °F 21% 29.75 in 10.0 mi Calm Calm - N/A   Partly Cloudy
10:56 AM 102.9 °F 101.9 °F 55.9 °F 21% 29.74 in 10.0 mi SSE 4.6 mph - N/A   Clear
11:56 AM 106.0 °F 104.5 °F 54.0 °F 18% 29.73 in 10.0 mi Calm Calm - N/A   Clear
12:56 PM 107.1 °F 106.7 °F 55.9 °F 19% 29.71 in 10.0 mi Variable 6.9 mph - N/A   Clear
1:56 PM 109.0 °F 107.4 °F 54.0 °F 16% 29.68 in 10.0 mi ESE 9.2 mph - N/A   Partly Cloudy
2:56 PM 109.9 °F - 50.0 °F 14% 29.65 in 10.0 mi Variable 3.5 mph - N/A   Partly Cloudy
3:56 PM 111.0 °F - 52.0 °F 14% 29.62 in 10.0 mi ESE 6.9 mph - N/A   Partly Cloudy
4:56 PM 111.0 °F - 50.0 °F 13% 29.61 in 10.0 mi SW 16.1 mph 21.9 mph N/A   Partly Cloudy
5:08 PM 109.4 °F - 51.8 °F 15% 29.56 in 10.0 mi WSW 18.4 mph - N/A   Unknown
5:56 PM 107.1 °F - 51.1 °F 16% 29.62 in 10.0 mi SW 15.0 mph - N/A   Partly Cloudy
6:56 PM 104.0 °F - 45.0 °F 14% 29.63 in 10.0 mi WSW 18.4 mph - N/A   Partly Cloudy
7:56 PM 100.0 °F - 41.0 °F 13% 29.66 in 10.0 mi West 16.1 mph - N/A   Partly Cloudy
8:56 PM 98.1 °F - 39.0 °F 13% 29.68 in 10.0 mi West 20.7 mph - N/A   Partly Cloudy
9:56 PM 95.0 °F - 39.0 °F 14% 29.71 in 10.0 mi West 16.1 mph - N/A   Partly Cloudy
10:56 PM 90.0 °F - 39.9 °F 17% 29.72 in 10.0 mi WNW 8.1 mph - N/A   Partly Cloudy
11:56 PM 91.9 °F - 39.9 °F 16% 29.73 in 10.0 mi West 13.8 mph - N/A   Unknown